Time,TemperatureF,DewpointF,PressureIn,WindDirection,WindDirectionDegrees,WindSpeedMPH,WindSpeedGustMPH,Humidity,HourlyPrecipIn,Conditions,Clouds,dailyrainin,SoftwareType,DateUTC
2013-07-07 01:22:00,80.0,65.0,29.86,South,169,15.0,25.0,60,0.00,,,0.01,,2013-07-07 06:22:00,
2013-07-07 01:32:00,80.0,65.0,29.86,South,169,15.0,25.0,60,0.00,,,0.01,,2013-07-07 06:32:00,
2013-07-07 01:43:00,79.0,64.0,29.86,SSE,160,12.0,24.0,61,0.00,,,0.01,,2013-07-07 06:43:00,
2013-07-07 01:52:00,79.0,64.0,29.86,SSE,161,11.0,20.0,61,0.00,,,0.01,,2013-07-07 06:52:00,
2013-07-07 02:02:00,79.0,64.0,29.86,SSE,161,11.0,20.0,61,0.00,,,0.01,,2013-07-07 07:02:00,
2013-07-07 02:11:00,79.0,64.0,29.86,South,176,12.0,21.0,61,0.00,,,0.01,,2013-07-07 07:11:00,
2013-07-07 02:22:00,79.0,64.0,29.86,SSE,165,11.0,22.0,61,0.00,,,0.01,,2013-07-07 07:22:00,
2013-07-07 02:33:00,79.0,64.0,29.86,SSE,165,11.0,22.0,61,0.00,,,0.01,,2013-07-07 07:33:00,
2013-07-07 02:44:00,79.0,65.0,29.85,SSE,167,11.0,25.0,62,0.00,,,0.01,,2013-07-07 07:44:00,
2013-07-07 02:53:00,79.0,65.0,29.86,South,183,9.0,24.0,62,0.00,,,0.01,,2013-07-07 07:53:00,
2013-07-07 03:02:00,79.0,65.0,29.86,South,183,9.0,24.0,62,0.00,,,0.01,,2013-07-07 08:02:00,
2013-07-07 03:12:00,79.0,65.0,29.87,South,183,12.0,19.0,62,0.00,,,0.01,,2013-07-07 08:12:00,
2013-07-07 03:22:00,79.0,65.0,29.87,SSE,167,10.0,16.0,62,0.00,,,0.01,,2013-07-07 08:22:00,
2013-07-07 03:34:00,79.0,65.0,29.87,SSE,167,10.0,16.0,62,0.00,,,0.01,,2013-07-07 08:34:00,
2013-07-07 03:44:00,79.0,65.0,29.88,South,173,11.0,18.0,62,0.00,,,0.01,,2013-07-07 08:44:00,
2013-07-07 03:53:00,78.0,65.0,29.88,SSE,164,9.0,22.0,64,0.00,,,0.01,,2013-07-07 08:53:00,
2013-07-07 04:02:00,78.0,65.0,29.88,SSE,164,9.0,22.0,64,0.00,,,0.01,,2013-07-07 09:02:00,
2013-07-07 04:12:00,78.0,65.0,29.88,SSE,164,13.0,23.0,64,0.00,,,0.01,,2013-07-07 09:12:00,
2013-07-07 04:22:00,78.0,65.0,29.88,South,178,8.0,17.0,64,0.00,,,0.01,,2013-07-07 09:22:00,
2013-07-07 04:34:00,78.0,65.0,29.88,South,178,8.0,17.0,64,0.00,,,0.01,,2013-07-07 09:34:00,
2013-07-07 04:43:00,78.0,65.0,29.88,SSE,153,6.0,20.0,64,0.00,,,0.01,,2013-07-07 09:43:00,
2013-07-07 04:53:00,78.0,65.0,29.88,SE,136,10.0,17.0,64,0.00,,,0.01,,2013-07-07 09:53:00,
2013-07-07 05:03:00,78.0,65.0,29.88,SE,136,10.0,17.0,64,0.00,,,0.01,,2013-07-07 10:03:00,
2013-07-07 05:12:00,77.0,64.0,29.88,South,175,9.0,19.0,64,0.00,,,0.01,,2013-07-07 10:12:00,
2013-07-07 05:22:00,77.0,64.0,29.88,South,171,8.0,19.0,65,0.00,,,0.01,,2013-07-07 10:22:00,
2013-07-07 05:32:00,77.0,64.0,29.88,South,171,8.0,19.0,65,0.00,,,0.01,,2013-07-07 10:32:00,
2013-07-07 05:43:00,77.0,64.0,29.88,SE,143,7.0,17.0,64,0.00,,,0.01,,2013-07-07 10:43:00,
2013-07-07 05:52:00,76.0,63.0,29.88,SSE,161,7.0,15.0,64,0.00,,,0.01,,2013-07-07 10:52:00,
2013-07-07 06:02:00,76.0,63.0,29.88,SSE,161,7.0,15.0,64,0.00,,,0.01,,2013-07-07 11:02:00,
2013-07-07 06:11:00,76.0,63.0,29.88,South,171,7.0,14.0,64,0.00,,,0.01,,2013-07-07 11:11:00,
2013-07-07 06:23:00,76.0,62.0,29.86,SSE,152,7.0,17.0,63,0.00,,,0.01,,2013-07-07 11:23:00,
2013-07-07 06:34:00,76.0,62.0,29.86,SSE,152,7.0,17.0,63,0.00,,,0.01,,2013-07-07 11:34:00,
2013-07-07 06:43:00,76.0,62.0,29.86,SSW,194,11.0,17.0,63,0.00,,,0.01,,2013-07-07 11:43:00,
2013-07-07 06:53:00,76.0,62.0,29.87,SSE,159,8.0,15.0,62,0.00,,,0.01,,2013-07-07 11:53:00,
2013-07-07 07:02:00,76.0,62.0,29.87,SSE,159,8.0,15.0,62,0.00,,,0.01,,2013-07-07 12:02:00,
2013-07-07 07:12:00,77.0,63.0,29.90,SSE,160,8.0,17.0,62,0.00,,,0.01,,2013-07-07 12:12:00,
2013-07-07 07:22:00,77.0,63.0,29.91,South,180,7.0,15.0,61,0.00,,,0.01,,2013-07-07 12:22:00,
2013-07-07 07:34:00,77.0,63.0,29.91,South,180,7.0,15.0,61,0.00,,,0.01,,2013-07-07 12:34:00,
2013-07-07 07:43:00,77.0,63.0,29.91,SSE,167,6.0,16.0,61,0.00,,,0.01,,2013-07-07 12:43:00,
2013-07-07 07:52:00,77.0,62.0,29.91,South,180,7.0,14.0,60,0.00,,,0.01,,2013-07-07 12:52:00,
2013-07-07 08:02:00,77.0,62.0,29.91,South,180,7.0,14.0,60,0.00,,,0.01,,2013-07-07 13:02:00,
2013-07-07 08:11:00,78.0,63.0,29.91,SSE,166,7.0,13.0,60,0.00,,,0.01,,2013-07-07 13:11:00,
2013-07-07 08:22:00,78.0,63.0,29.92,SSE,165,7.0,15.0,60,0.00,,,0.01,,2013-07-07 13:22:00,
2013-07-07 08:34:00,78.0,63.0,29.92,SSE,165,7.0,15.0,60,0.00,,,0.01,,2013-07-07 13:34:00,
2013-07-07 08:43:00,78.0,63.0,29.92,SSE,162,7.0,16.0,60,0.00,,,0.01,,2013-07-07 13:43:00,
2013-07-07 08:52:00,79.0,63.0,29.92,South,184,9.0,14.0,59,0.00,,,0.01,,2013-07-07 13:52:00,
2013-07-07 09:02:00,79.0,63.0,29.92,South,184,9.0,14.0,59,0.00,,,0.01,,2013-07-07 14:02:00,
2013-07-07 09:12:00,80.0,63.0,29.92,South,188,9.0,17.0,57,0.00,,,0.01,,2013-07-07 14:12:00,
2013-07-07 09:22:00,81.0,63.0,29.92,SSE,161,10.0,16.0,55,0.00,,,0.01,,2013-07-07 14:22:00,
2013-07-07 09:34:00,81.0,63.0,29.92,SSE,161,10.0,16.0,55,0.00,,,0.01,,2013-07-07 14:34:00,
2013-07-07 09:43:00,81.0,63.0,29.91,SSE,167,12.0,22.0,55,0.00,,,0.01,,2013-07-07 14:43:00,
2013-07-07 09:53:00,81.0,63.0,29.91,SSE,157,9.0,22.0,54,0.00,,,0.01,,2013-07-07 14:53:00,
2013-07-07 10:02:00,81.0,63.0,29.91,SSE,157,9.0,22.0,54,0.00,,,0.01,,2013-07-07 15:02:00,
2013-07-07 10:11:00,82.0,64.0,29.91,SSE,148,7.0,13.0,55,0.00,,,0.01,,2013-07-07 15:11:00,
2013-07-07 10:22:00,84.0,63.0,29.91,SSE,147,8.0,16.0,50,0.00,,,0.01,,2013-07-07 15:22:00,
2013-07-07 10:34:00,84.0,63.0,29.91,SSE,147,8.0,16.0,50,0.00,,,0.01,,2013-07-07 15:34:00,
2013-07-07 10:43:00,86.0,64.0,29.91,SSE,166,8.0,16.0,48,0.00,,,0.01,,2013-07-07 15:43:00,
2013-07-07 10:52:00,87.0,64.0,29.91,South,185,7.0,16.0,47,0.00,,,0.01,,2013-07-07 15:52:00,
2013-07-07 11:01:00,87.0,64.0,29.91,South,185,7.0,16.0,47,0.00,,,0.01,,2013-07-07 16:01:00,
2013-07-07 11:11:00,88.0,64.0,29.90,ESE,115,8.0,16.0,45,0.00,,,0.01,,2013-07-07 16:11:00,
2013-07-07 11:22:00,89.0,65.0,29.90,SSE,157,6.0,16.0,45,0.00,,,0.01,,2013-07-07 16:22:00,
2013-07-07 11:43:00,90.0,65.0,29.89,SSW,200,9.0,22.0,44,0.00,,,0.01,,2013-07-07 16:43:00,
2013-07-07 11:53:00,89.0,64.0,29.90,SE,139,7.0,18.0,43,0.00,,,0.01,,2013-07-07 16:53:00,
2013-07-07 12:02:00,89.0,64.0,29.90,SE,139,7.0,18.0,43,0.00,,,0.01,,2013-07-07 17:02:00,
2013-07-07 12:12:00,89.0,65.0,29.90,SSE,166,6.0,21.0,45,0.00,,,0.01,,2013-07-07 17:12:00,
2013-07-07 12:22:00,91.0,65.0,29.89,SSE,164,8.0,16.0,43,0.00,,,0.01,,2013-07-07 17:22:00,
2013-07-07 12:34:00,91.0,65.0,29.89,SSE,164,8.0,16.0,43,0.00,,,0.01,,2013-07-07 17:34:00,
2013-07-07 12:43:00,93.0,65.0,29.89,SSW,195,4.0,16.0,40,0.00,,,0.01,,2013-07-07 17:43:00,
2013-07-07 12:53:00,94.0,64.0,29.89,SE,144,6.0,14.0,38,0.00,,,0.01,,2013-07-07 17:53:00,
2013-07-07 13:02:00,94.0,64.0,29.89,SE,144,6.0,14.0,38,0.00,,,0.01,,2013-07-07 18:02:00,
2013-07-07 13:11:00,95.0,65.0,29.89,ESE,104,7.0,14.0,37,0.00,,,0.01,,2013-07-07 18:11:00,
2013-07-07 13:22:00,97.0,66.0,29.88,SSE,159,5.0,15.0,36,0.00,,,0.01,,2013-07-07 18:22:00,
2013-07-07 13:33:00,97.0,66.0,29.88,SSE,159,5.0,15.0,36,0.00,,,0.01,,2013-07-07 18:33:00,
2013-07-07 13:43:00,96.0,65.0,29.88,East,96,2.0,15.0,36,0.00,,,0.01,,2013-07-07 18:43:00,
2013-07-07 13:53:00,96.0,65.0,29.88,South,172,5.0,14.0,37,0.00,,,0.00,,2013-07-07 18:53:00,
2013-07-07 14:01:00,96.0,65.0,29.88,South,172,5.0,14.0,37,0.00,,,0.00,,2013-07-07 19:01:00,
2013-07-07 14:11:00,95.0,65.0,29.88,South,173,6.0,19.0,37,0.00,,,0.00,,2013-07-07 19:11:00,
2013-07-07 14:22:00,96.0,65.0,29.88,South,182,5.0,12.0,37,0.00,,,0.00,,2013-07-07 19:22:00,
2013-07-07 14:33:00,96.0,65.0,29.88,South,182,5.0,12.0,37,0.00,,,0.00,,2013-07-07 19:33:00,
2013-07-07 14:43:00,97.0,65.0,29.88,SSW,209,4.0,15.0,35,0.00,,,0.00,,2013-07-07 19:43:00,
2013-07-07 14:54:00,96.0,65.0,29.88,SSE,163,7.0,15.0,36,0.00,,,0.00,,2013-07-07 19:54:00,
2013-07-07 15:02:00,96.0,65.0,29.88,SSE,163,7.0,15.0,36,0.00,,,0.00,,2013-07-07 20:02:00,
2013-07-07 15:11:00,97.0,65.0,29.87,SSE,167,6.0,20.0,35,0.00,,,0.00,,2013-07-07 20:11:00,
2013-07-07 15:22:00,97.0,65.0,29.87,South,182,7.0,15.0,35,0.00,,,0.00,,2013-07-07 20:22:00,
2013-07-07 15:34:00,97.0,65.0,29.87,South,182,7.0,15.0,35,0.00,,,0.00,,2013-07-07 20:34:00,
2013-07-07 15:42:00,97.0,65.0,29.87,SSE,161,11.0,15.0,35,0.00,,,0.00,,2013-07-07 20:42:00,
2013-07-07 16:11:00,99.0,65.0,29.86,South,186,10.0,17.0,33,0.00,,,0.00,,2013-07-07 21:11:00,
2013-07-07 16:22:00,99.0,65.0,29.86,South,175,13.0,20.0,33,0.00,,,0.00,,2013-07-07 21:22:00,
2013-07-07 16:33:00,99.0,65.0,29.86,South,175,13.0,20.0,33,0.00,,,0.00,,2013-07-07 21:33:00,
2013-07-07 16:53:00,98.0,65.0,29.85,SSE,164,9.0,23.0,34,0.00,,,0.00,,2013-07-07 21:53:00,
2013-07-07 17:01:00,98.0,65.0,29.85,SSE,164,9.0,23.0,34,0.00,,,0.00,,2013-07-07 22:01:00,
2013-07-07 17:11:00,99.0,63.0,29.86,South,184,13.0,22.0,31,0.00,,,0.00,,2013-07-07 22:11:00,
2013-07-07 17:22:00,99.0,62.0,29.85,SSE,165,16.0,23.0,30,0.00,,,0.00,,2013-07-07 22:22:00,
2013-07-07 17:34:00,99.0,62.0,29.85,SSE,165,16.0,23.0,30,0.00,,,0.00,,2013-07-07 22:34:00,
2013-07-07 17:43:00,99.0,63.0,29.85,SSE,153,14.0,23.0,31,0.00,,,0.00,,2013-07-07 22:43:00,
2013-07-07 17:53:00,98.0,62.0,29.84,SSE,160,11.0,20.0,31,0.00,,,0.00,,2013-07-07 22:53:00,
2013-07-07 18:02:00,98.0,62.0,29.84,SSE,160,11.0,20.0,31,0.00,,,0.00,,2013-07-07 23:02:00,
2013-07-07 18:12:00,98.0,62.0,29.84,SSE,160,6.0,19.0,31,0.00,,,0.00,,2013-07-07 23:12:00,
2013-07-07 18:22:00,98.0,62.0,29.83,SSE,149,11.0,19.0,31,0.00,,,0.00,,2013-07-07 23:22:00,
2013-07-07 18:33:00,98.0,62.0,29.83,SSE,149,11.0,19.0,31,0.00,,,0.00,,2013-07-07 23:33:00,
2013-07-07 18:43:00,98.0,62.0,29.83,SSE,161,11.0,19.0,31,0.00,,,0.00,,2013-07-07 23:43:00,
2013-07-07 18:52:00,98.0,62.0,29.83,SSE,163,11.0,25.0,31,0.00,,,0.00,,2013-07-07 23:52:00,
2013-07-07 19:01:00,98.0,62.0,29.83,SSE,163,11.0,25.0,31,0.00,,,0.00,,2013-07-08 00:01:00,
2013-07-07 19:11:00,97.0,62.0,29.84,South,177,11.0,16.0,32,0.00,,,0.00,,2013-07-08 00:11:00,
2013-07-07 19:22:00,97.0,63.0,29.84,South,169,7.0,15.0,33,0.00,,,0.00,,2013-07-08 00:22:00,
2013-07-07 19:33:00,97.0,63.0,29.84,South,169,7.0,15.0,33,0.00,,,0.00,,2013-07-08 00:33:00,
2013-07-07 20:01:00,95.0,63.0,29.84,SSE,163,11.0,19.0,35,0.00,,,0.00,,2013-07-08 01:01:00,
2013-07-07 20:11:00,94.0,62.0,29.85,South,169,10.0,16.0,35,0.00,,,0.00,,2013-07-08 01:11:00,
2013-07-07 20:22:00,93.0,61.0,29.85,South,183,7.0,18.0,35,0.00,,,0.00,,2013-07-08 01:22:00,
2013-07-07 20:32:00,93.0,61.0,29.85,South,183,7.0,18.0,35,0.00,,,0.00,,2013-07-08 01:32:00,
2013-07-07 20:43:00,92.0,61.0,29.85,SSE,155,8.0,15.0,36,0.00,,,0.00,,2013-07-08 01:43:00,
2013-07-07 20:52:00,91.0,62.0,29.85,South,169,12.0,16.0,38,0.00,,,0.00,,2013-07-08 01:52:00,
2013-07-07 21:02:00,91.0,62.0,29.85,South,169,12.0,16.0,38,0.00,,,0.00,,2013-07-08 02:02:00,
2013-07-07 21:11:00,91.0,63.0,29.86,SSE,163,11.0,19.0,40,0.00,,,0.00,,2013-07-08 02:11:00,
2013-07-07 21:22:00,90.0,63.0,29.86,SSW,194,12.0,19.0,41,0.00,,,0.00,,2013-07-08 02:22:00,
2013-07-07 21:33:00,90.0,63.0,29.86,SSW,194,12.0,19.0,41,0.00,,,0.00,,2013-07-08 02:33:00,
2013-07-07 21:42:00,90.0,64.0,29.86,SSE,147,14.0,21.0,43,0.00,,,0.00,,2013-07-08 02:42:00,
2013-07-07 21:52:00,89.0,64.0,29.86,South,191,15.0,21.0,44,0.00,,,0.00,,2013-07-08 02:52:00,
2013-07-07 22:01:00,89.0,64.0,29.86,South,191,15.0,21.0,44,0.00,,,0.00,,2013-07-08 03:01:00,
2013-07-07 22:12:00,89.0,65.0,29.87,South,182,17.0,22.0,45,0.00,,,0.00,,2013-07-08 03:12:00,
2013-07-07 22:23:00,88.0,65.0,29.88,SSE,156,14.0,22.0,46,0.00,,,0.00,,2013-07-08 03:23:00,
2013-07-07 22:34:00,88.0,65.0,29.88,SSE,156,14.0,22.0,46,0.00,,,0.00,,2013-07-08 03:34:00,
2013-07-07 22:42:00,88.0,65.0,29.89,South,172,12.0,23.0,46,0.00,,,0.00,,2013-07-08 03:42:00,
2013-07-07 22:52:00,87.0,64.0,29.89,South,171,13.0,24.0,47,0.00,,,0.00,,2013-07-08 03:52:00,
2013-07-07 23:01:00,87.0,64.0,29.89,South,171,13.0,24.0,47,0.00,,,0.00,,2013-07-08 04:01:00,
2013-07-07 23:12:00,87.0,64.0,29.89,South,171,13.0,24.0,47,0.00,,,0.00,,2013-07-08 04:12:00,
2013-07-07 23:22:00,87.0,64.0,29.89,South,171,13.0,24.0,47,0.00,,,0.00,,2013-07-08 04:22:00,
2013-07-07 23:33:00,87.0,65.0,29.90,South,176,14.0,21.0,48,0.00,,,0.00,,2013-07-08 04:33:00,
2013-07-07 23:42:00,86.0,65.0,29.91,South,187,13.0,22.0,49,0.00,,,0.00,,2013-07-08 04:42:00,
2013-07-07 23:53:00,86.0,65.0,29.91,SSE,165,13.0,21.0,49,0.00,,,0.00,,2013-07-08 04:53:00,